CFG1LM LEPA-LEPA

Flight info

Callsign CFG1LM
Flight time 0h 35m
Altitude 36000
Route MEROS N853 LUMAS DCT MAXIR DCT LUSOL DCT BODRU DCT OKTET DCT IRMAR DCT KINES DCT VANAS DCT MOBLO DCT UBIMA DCT GILIR DCT PENDU DCT IXILU DCT EPL DCT ROUSY DCT DIK/N0441F370 N853 ARCKY T853 NVO T857 BIKMU BIKMU1A
Aircraft A321/M-SDE3FGHIRWY/LB1

Departure

Time 2026-04-30 21:32
Airport Palma de Mallorca Airport (LEPA)

Arrival

Time 2026-04-30 22:07
Airport Palma de Mallorca Airport (LEPA)
Time Latitude Longitude Altitude Speed Heading
2026-04-30 21:31 39.47875 2.56455 2566 ft 219 kts 68°
2026-04-30 21:32 39.49392 2.59854 2014 ft 216 kts 59°
2026-04-30 21:32 39.50170 2.61489 1728 ft 215 kts 59°
2026-04-30 21:32 39.50952 2.63135 1452 ft 211 kts 59°
2026-04-30 21:32 39.51696 2.64701 1184 ft 195 kts 59°
2026-04-30 21:33 39.52355 2.66090 935 ft 171 kts 60°
2026-04-30 21:33 39.53499 2.68503 515 ft 148 kts 58°
2026-04-30 21:33 39.54032 2.69630 324 ft 145 kts 60°
2026-04-30 21:34 39.54560 2.70744 141 ft 148 kts 59°
2026-04-30 21:34 39.55800 2.73288 1669 ft 178 kts 58°
2026-04-30 21:34 39.56516 2.74732 2291 ft 200 kts 58°
2026-04-30 21:35 39.57537 2.76058 2607 ft 218 kts 25°
2026-04-30 21:35 39.59024 2.76676 2944 ft 224 kts 22°
2026-04-30 21:35 39.60417 2.77517 3003 ft 223 kts 28°
2026-04-30 21:35 39.61806 2.78436 3007 ft 223 kts 28°
2026-04-30 21:36 39.63170 2.79366 3009 ft 223 kts 29°
2026-04-30 21:36 39.64551 2.80318 3008 ft 223 kts 29°
2026-04-30 21:37 39.68311 2.83685 3012 ft 220 kts 61°
2026-04-30 21:37 39.68771 2.85553 3013 ft 221 kts 86°
2026-04-30 21:37 39.68772 2.87550 3015 ft 222 kts 90°
2026-04-30 21:37 39.68761 2.89573 3016 ft 222 kts 90°
2026-04-30 21:38 39.68751 2.91577 3021 ft 221 kts 89°
2026-04-30 21:38 39.68741 2.93554 3020 ft 221 kts 89°
2026-04-30 21:38 39.68733 2.95560 3020 ft 221 kts 89°
2026-04-30 21:38 39.68725 2.97567 3021 ft 222 kts 89°
2026-04-30 21:39 39.68566 2.99561 3022 ft 223 kts 109°
2026-04-30 21:39 39.67678 3.01158 3021 ft 226 kts 142°
2026-04-30 21:39 39.66213 3.01886 3018 ft 231 kts 175°
2026-04-30 21:39 39.64643 3.01458 3021 ft 235 kts 209°
2026-04-30 21:40 39.63451 3.00010 3024 ft 237 kts 234°
2026-04-30 21:40 39.62559 2.98225 3019 ft 238 kts 238°
2026-04-30 21:40 39.61703 2.96371 3019 ft 238 kts 239°
2026-04-30 21:40 39.60868 2.94545 3019 ft 238 kts 239°
2026-04-30 21:41 39.60025 2.92702 3020 ft 238 kts 239°
2026-04-30 21:41 39.59176 2.90838 3023 ft 238 kts 239°
2026-04-30 21:41 39.58342 2.89008 3022 ft 238 kts 239°
2026-04-30 21:41 39.57495 2.87150 3015 ft 238 kts 239°
2026-04-30 21:42 39.56651 2.85291 3014 ft 238 kts 239°
2026-04-30 21:42 39.55813 2.83446 3014 ft 238 kts 239°
2026-04-30 21:42 39.54969 2.81592 3018 ft 239 kts 239°
2026-04-30 21:42 39.54130 2.79751 3009 ft 239 kts 239°
2026-04-30 21:43 39.53281 2.77897 3011 ft 239 kts 239°
2026-04-30 21:43 39.52439 2.76061 3014 ft 239 kts 239°
2026-04-30 21:43 39.51590 2.74205 3011 ft 239 kts 239°
2026-04-30 21:43 39.50734 2.72332 3009 ft 239 kts 239°
2026-04-30 21:44 39.49900 2.70513 3008 ft 239 kts 239°
2026-04-30 21:44 39.49054 2.68660 3010 ft 238 kts 239°
2026-04-30 21:44 39.48217 2.66825 3007 ft 238 kts 239°
2026-04-30 21:44 39.47370 2.64979 3009 ft 238 kts 239°
2026-04-30 21:45 39.46520 2.63135 3003 ft 238 kts 240°
2026-04-30 21:45 39.45655 2.61285 3011 ft 239 kts 240°
2026-04-30 21:45 39.45065 2.59294 3011 ft 238 kts 264°
2026-04-30 21:45 39.45203 2.57208 2885 ft 237 kts 292°
2026-04-30 21:46 39.46076 2.55469 2639 ft 226 kts 327°
2026-04-30 21:46 39.47501 2.54896 2644 ft 209 kts
2026-04-30 21:46 39.48695 2.55678 2527 ft 187 kts 53°
2026-04-30 21:46 39.49011 2.57199 2355 ft 175 kts 92°
2026-04-30 21:47 39.49054 2.58708 2156 ft 166 kts 69°
2026-04-30 21:47 39.49584 2.60012 1971 ft 161 kts 64°
2026-04-30 21:47 39.50110 2.61259 1767 ft 157 kts 62°
2026-04-30 21:47 39.50656 2.62469 1550 ft 152 kts 61°
2026-04-30 21:48 39.51182 2.63593 1399 ft 145 kts 61°
2026-04-30 21:48 39.51705 2.64701 1195 ft 143 kts 60°
2026-04-30 21:48 39.52216 2.65791 975 ft 141 kts 61°
2026-04-30 21:48 39.52734 2.66891 799 ft 142 kts 62°
2026-04-30 21:49 39.53266 2.67985 612 ft 143 kts 58°
2026-04-30 21:49 39.53783 2.69089 422 ft 144 kts 60°
2026-04-30 21:49 39.54304 2.70198 218 ft 143 kts 60°
2026-04-30 21:49 39.54810 2.71286 38 ft 141 kts 59°
2026-04-30 21:50 39.55301 2.72303 42 ft 127 kts 58°
2026-04-30 21:50 39.55842 2.73437 547 ft 159 kts 59°
2026-04-30 21:50 39.56432 2.74693 1517 ft 167 kts 56°
2026-04-30 21:50 39.57384 2.75648 1941 ft 189 kts 26°
2026-04-30 21:51 39.58667 2.76360 2100 ft 211 kts 26°
2026-04-30 21:51 39.60045 2.77201 2547 ft 220 kts 28°
2026-04-30 21:51 39.61415 2.78110 2924 ft 224 kts 29°
2026-04-30 21:51 39.62788 2.79055 3001 ft 223 kts 29°
2026-04-30 21:52 39.64144 2.80000 3008 ft 222 kts 30°
2026-04-30 21:52 39.65489 2.80943 3008 ft 222 kts 30°
2026-04-30 21:52 39.66851 2.81899 3018 ft 221 kts 30°
2026-04-30 21:52 39.68037 2.83155 3023 ft 219 kts 53°
2026-04-30 21:53 39.68694 2.84901 3014 ft 219 kts 77°
2026-04-30 21:53 39.68776 2.86885 3017 ft 220 kts 90°
2026-04-30 21:53 39.68759 2.88867 3019 ft 220 kts 89°
2026-04-30 21:53 39.68751 2.90859 3020 ft 220 kts 89°
2026-04-30 21:54 39.68743 2.92852 3024 ft 220 kts 89°
2026-04-30 21:54 39.68733 2.94841 3023 ft 220 kts 89°
2026-04-30 21:54 39.68724 2.96802 3023 ft 219 kts 89°
2026-04-30 21:54 39.68715 2.98798 3024 ft 219 kts 89°
2026-04-30 21:55 39.68704 3.00786 3023 ft 220 kts 89°
2026-04-30 21:55 39.68691 3.02752 3025 ft 219 kts 91°
2026-04-30 21:55 39.68286 3.04626 3020 ft 222 kts 122°
2026-04-30 21:55 39.67120 3.05924 3024 ft 225 kts 156°
2026-04-30 21:56 39.65560 3.06169 3022 ft 231 kts 189°
2026-04-30 21:56 39.64118 3.05254 3025 ft 235 kts 223°
2026-04-30 21:56 39.63160 3.03568 3022 ft 237 kts 240°
2026-04-30 21:56 39.62355 3.01675 3024 ft 238 kts 242°
2026-04-30 21:57 39.61584 2.99782 3025 ft 237 kts 242°
2026-04-30 21:57 39.60821 2.97905 3021 ft 237 kts 242°
2026-04-30 21:57 39.60048 2.95991 3021 ft 237 kts 242°
2026-04-30 21:57 39.59292 2.94105 3021 ft 237 kts 242°
2026-04-30 21:58 39.58540 2.92224 3023 ft 237 kts 242°
2026-04-30 21:58 39.57775 2.90322 3021 ft 237 kts 242°
2026-04-30 21:58 39.57019 2.88444 3020 ft 237 kts 242°
2026-04-30 21:58 39.56256 2.86547 3021 ft 237 kts 242°
2026-04-30 21:59 39.55496 2.84656 3024 ft 237 kts 242°
2026-04-30 21:59 39.54727 2.82745 3026 ft 238 kts 242°
2026-04-30 21:59 39.53968 2.80867 3010 ft 238 kts 242°
2026-04-30 22:00 39.52433 2.77086 3004 ft 238 kts 242°
2026-04-30 22:00 39.50886 2.73291 3011 ft 237 kts 242°
2026-04-30 22:00 39.50128 2.71426 3008 ft 237 kts 242°
2026-04-30 22:01 39.49356 2.69523 3014 ft 237 kts 242°
2026-04-30 22:01 39.48594 2.67638 3014 ft 236 kts 242°
2026-04-30 22:01 39.47830 2.65745 2783 ft 236 kts 242°
2026-04-30 22:01 39.47079 2.63876 2474 ft 235 kts 242°
2026-04-30 22:02 39.46331 2.62003 2313 ft 233 kts 242°
2026-04-30 22:02 39.45589 2.60138 2312 ft 234 kts 242°
2026-04-30 22:02 39.44929 2.58205 2310 ft 235 kts 259°
2026-04-30 22:02 39.45118 2.56185 2316 ft 225 kts 300°
2026-04-30 22:03 39.46216 2.54915 2310 ft 210 kts 345°
2026-04-30 22:03 39.47586 2.54999 2312 ft 198 kts 30°
2026-04-30 22:03 39.48442 2.56310 2310 ft 194 kts 76°
2026-04-30 22:03 39.48597 2.58027 2241 ft 194 kts 81°
2026-04-30 22:04 39.49199 2.59573 2049 ft 195 kts 53°
2026-04-30 22:04 39.49965 2.61011 1812 ft 191 kts 60°
2026-04-30 22:04 39.51226 2.63705 1343 ft 158 kts 60°
2026-04-30 22:05 39.51779 2.64874 1130 ft 148 kts 60°
2026-04-30 22:05 39.52314 2.65980 943 ft 145 kts 60°
2026-04-30 22:05 39.52664 2.66735 813 ft 145 kts 61°
2026-04-30 22:05 39.53369 2.68219 575 ft 146 kts 59°
2026-04-30 22:06 39.53882 2.69325 382 ft 144 kts 59°
2026-04-30 22:06 39.54929 2.71525 30 ft 139 kts 59°
2026-04-30 22:06 39.55357 2.72430 25 ft 91 kts 58°
2026-04-30 22:07 39.55581 2.72895 30 ft 39 kts 58°
2026-04-30 22:07 39.55678 2.73103 26 ft 22 kts 59°
2026-04-30 22:07 39.55716 2.73288 24 ft 22 kts 88°
2026-04-30 22:07 39.55711 2.73475 25 ft 18 kts 99°
2026-04-30 22:08 39.55675 2.73517 26 ft 0 kts 219°
2026-04-30 22:09 39.55674 2.73516 26 ft 0 kts 220°
2026-04-30 22:09 39.55671 2.73513 26 ft 1 kts 220°
2026-04-30 22:09 39.55665 2.73507 26 ft 0 kts 217°
2026-04-30 22:10 39.55664 2.73506 26 ft 1 kts 217°
2026-04-30 22:10 39.55654 2.73497 26 ft 2 kts 211°
2026-04-30 22:10 39.55645 2.73495 27 ft 2 kts 185°
2026-04-30 22:11 39.55572 2.73537 29 ft 10 kts 150°
2026-04-30 22:11 39.55514 2.73567 30 ft 7 kts 190°
2026-04-30 22:11 39.55484 2.73530 31 ft 5 kts 233°
2026-04-30 22:12 39.55467 2.73496 31 ft 4 kts 237°
2026-04-30 22:12 39.55453 2.73467 31 ft 3 kts 237°
2026-04-30 22:12 39.55440 2.73451 31 ft 2 kts 209°
2026-04-30 22:12 39.55400 2.73463 31 ft 11 kts 152°
2026-04-30 22:13 39.55335 2.73514 35 ft 10 kts 148°
2026-04-30 22:13 39.55285 2.73553 36 ft 8 kts 148°
2026-04-30 22:13 39.55242 2.73588 36 ft 7 kts 148°
2026-04-30 22:13 39.55200 2.73615 36 ft 6 kts 172°
2026-04-30 22:14 39.55172 2.73588 36 ft 5 kts 231°
2026-04-30 22:14 39.55149 2.73569 36 ft 3 kts 199°
2026-04-30 22:14 39.55129 2.73568 36 ft 2 kts 174°
2026-04-30 22:14 39.55114 2.73572 36 ft 2 kts 168°
2026-04-30 22:15 39.55096 2.73578 36 ft 3 kts 166°
2026-04-30 22:15 39.55075 2.73585 36 ft 3 kts 165°
2026-04-30 22:15 39.55067 2.73588 36 ft 0 kts 164°